Flag for Lebanon Weather past 2 weeks in Beirut, Lebanon

Now
84 °F

Passing clouds.


Feels Like: 91 °F
Forecast: 80 / 85 °F
Wind: 5 mph from Northwest

Location: Beirut Airport

Current Time: Sep 3, 2015 at 9:16:48 PM

Latest Report: Sep 3, 2015 at 8:00 PM


Visibility: 5 mi

Pressure: 29.83 "Hg

Humidity: 70%

Dew point: 73 °F

Location of BeirutLocation

Historic Weather in Beirut — Graph

°F

Beirut temperature yesterday

Maximum temperature yesterday: 88 °F (at 12:00 PM)
Minimum temperature yesterday: 81 °F (at 4:00 AM)
Average temperature yesterday: 84 °F

Past Weeks' High & Low Weather Summary

 TemperatureHumidityPressure
High90 °F (Aug 27, 1:00 PM)84% (Sep 3, 2:00 AM)29.92 "Hg (Sep 3, 2:00 AM)
Low79 °F (Aug 22, 5:00 AM)35% (Aug 28, 8:00 AM)29.74 "Hg (Aug 22, 7:00 PM)
Average84 °F63%29.85 "Hg
* Reported Aug 19 8:00 PM — Sep 3 8:00 PM, Beirut, Weather by CustomWeather, © 2015

Note: Actual official high and low records may vary slightly from our data, if they occured in-between our weather recording intervals... More about our weather records

Advertising

Beirut weather history for previous 24 hours

 ConditionsComfort  
Time TempWeatherWind HumidityBarometerVisibility
8:00 PM
Thu, Sep 3
84 °FPassing clouds.5 mph70%29.83 "Hg5 mi
7:00 PM86 °FPassing clouds.5 mph66%29.83 "Hg5 mi
6:00 PM86 °FPassing clouds.7 mph66%29.83 "Hg4 mi
5:00 PM88 °FPassing clouds.8 mph62%29.83 "Hg5 mi
4:00 PM88 °FPassing clouds.7 mph62%29.86 "Hg5 mi
3:00 PM88 °FPassing clouds.8 mph62%29.86 "Hg4 mi
2:00 PM88 °FPassing clouds.8 mph62%29.86 "Hg4 mi
1:00 PM88 °FFog.8 mph62%29.86 "Hg3 mi
12:00 PM88 °FFog.7 mph66%29.89 "Hg3 mi
11:00 AM86 °FFog.8 mph66%29.89 "Hg3 mi
10:00 AM86 °FFog.8 mph70%29.89 "Hg3 mi
9:00 AM82 °FFog.7 mph79%29.89 "Hg3 mi
8:00 AM84 °FFog.3 mph70%29.89 "Hg3 mi
7:00 AM81 °FPassing clouds.3 mph74%29.86 "Hg4 mi
6:00 AM81 °FPassing clouds.2 mph74%29.86 "Hg4 mi
5:00 AM82 °FPassing clouds.5 mph70%29.86 "Hg5 mi
4:00 AM82 °FPassing clouds.5 mph74%29.86 "Hg5 mi
3:00 AM84 °FPassing clouds.5 mph70%29.86 "HgN/A
2:00 AM82 °FPassing clouds.5 mph84%29.86 "Hg5 mi
1:00 AM84 °FPassing clouds.3 mph79%29.89 "Hg5 mi
12:00 AM84 °FPassing clouds.5 mph74%29.89 "Hg5 mi
11:00 PM
Wed, Sep 2
84 °FPassing clouds.5 mph74%29.89 "Hg5 mi
10:00 PM84 °FPassing clouds.5 mph74%29.89 "Hg5 mi
9:00 PM84 °FPassing clouds.6 mph74%29.89 "Hg5 mi
Weather by CustomWeather, © 2015

See weather overviewHow to use our weather pages